This is the latest recevied weather packets stored in our database for station/object N5KJT. If no packets are shown the sender has not sent any weather packets the latest 10 day(s).
| Time | Temp. | Humidity | Pressure | Rain* | Wind** | Luminosity | Snow |
|---|---|---|---|---|---|---|---|
| 1787886915 | 23.33° C | 48% | 1029.5 hPa | 0 mm | - | 0 W/m² | - |
| 1787886615 | 22.78° C | 48% | 1029.4 hPa | 0 mm | - | 0 W/m² | - |
| 1787886315 | 22.78° C | 48% | 1029.3 hPa | 0 mm | - | 0 W/m² | - |
| 1787886015 | 22.22° C | 50% | 1029 hPa | 0 mm | - | 0 W/m² | - |
| 1787885717 | 21.67° C | 53% | 1028.1 hPa | 0 mm | - | 0 W/m² | - |
| 1787885415 | 21.67° C | 53% | 1028.1 hPa | 0 mm | - | 0 W/m² | - |
| 1787885115 | 21.11° C | 55% | 1027.8 hPa | 0 mm | - | 0 W/m² | - |
| 1787884815 | 21.11° C | 55% | 1027.4 hPa | 0 mm | - | 0 W/m² | - |
| 1787884515 | 21.11° C | 54% | 1027.1 hPa | 0 mm | - | 0 W/m² | - |
| 1787884215 | 21.67° C | 54% | 1026.9 hPa | 0 mm | - | 0 W/m² | - |
| 1787883915 | 21.67° C | 53% | 1026.7 hPa | 0 mm | - | 0 W/m² | - |
| 1787883615 | 22.22° C | 52% | 1026.6 hPa | 0 mm | - | 0 W/m² | - |
| 1787883315 | 22.22° C | 51% | 1026.5 hPa | 0 mm | - | 0 W/m² | - |
| 1787883015 | 22.22° C | 50% | 1026.4 hPa | 0 mm | - | 0 W/m² | - |
| 1787882715 | 22.78° C | 49% | 1026.3 hPa | 0 mm | - | 0 W/m² | - |
| 1787882415 | 22.78° C | 48% | 1026.3 hPa | 0 mm | - | 0 W/m² | - |
| 1787882115 | 22.78° C | 48% | 1026.2 hPa | 0 mm | - | 0 W/m² | - |
| 1787881815 | 23.33° C | 48% | 1026.1 hPa | 0 mm | - | 0 W/m² | - |
| 1787881515 | 23.33° C | 48% | 1026.1 hPa | 0 mm | - | 0 W/m² | - |
| 1787881215 | 23.33° C | 47% | 1026 hPa | 0 mm | - | 0 W/m² | - |
| 1787880915 | 23.89° C | 47% | 1025.9 hPa | 0 mm | - | 4 W/m² | - |
| 1787880615 | 23.89° C | 46% | 1025.9 hPa | 0 mm | - | 6 W/m² | - |
| 1787880315 | 23.89° C | 46% | 1025.8 hPa | 0 mm | - | 8 W/m² | - |
| 1787880015 | 24.44° C | 46% | 1025.8 hPa | 0 mm | - | 10 W/m² | - |
| 1787879715 | 24.44° C | 45% | 1025.7 hPa | 0 mm | - | 13 W/m² | - |
* Rain latest hour (hover to see other rain measurements)
** Current wind speed in m/s (hover to see current wind gust speed)